EST,Max TemperatureF,Mean TemperatureF,Min TemperatureF,Max Dew PointF,MeanDew PointF,Min DewpointF,Max Humidity, Mean Humidity, Min Humidity, Max Sea Level PressureIn, Mean Sea Level PressureIn, Min Sea Level PressureIn, Max VisibilityMiles, Mean VisibilityMiles, Min VisibilityMiles, Max Wind SpeedMPH, Mean Wind SpeedMPH, Max Gust SpeedMPH,PrecipitationIn, CloudCover, Events, WindDirDegrees
2011-12-1,54,45,36,38,35,33,89,70,47,30.37,30.26,30.09,10,10,10,16,8,21,0.00,0,,356
2011-12-2,60,48,35,38,34,27,96,69,28,30.46,30.41,30.36,10,10,10,8,2,,0.00,0,,324
2011-12-3,60,48,36,47,41,34,97,77,51,30.57,30.53,30.46,10,10,10,14,4,23,0.00,0,,33
2011-12-4,66,56,46,55,51,44,93,82,68,30.51,30.43,30.36,10,10,10,9,6,,0.00,4,,32
2011-12-5,70,64,59,61,58,54,96,84,68,30.35,30.29,30.22,10,9,2,10,4,,0.06,7,Rain,87
2011-12-6,72,64,55,62,58,55,100,88,68,30.20,30.15,30.05,10,8,0,8,2,,0.00,3,Fog,185
2011-12-7,71,66,55,64,61,44,94,83,63,30.03,29.83,29.65,10,9,2,28,12,37,0.01,5,Rain,206
2011-12-8,54,48,42,45,36,30,80,64,40,30.37,30.18,29.88,10,10,10,25,15,32,0.00,1,,351
2011-12-9,66,54,43,57,50,37,96,82,59,30.32,30.24,30.18,10,9,4,12,6,,0.02,5,Rain,35
2011-12-10,53,48,44,52,43,35,96,78,59,30.44,30.27,30.15,10,9,6,16,10,22,0.00,5,Rain,2
2011-12-11,53,48,43,40,35,30,80,64,48,30.57,30.51,30.44,10,10,10,18,10,29,0.00,0,,30
2011-12-12,59,52,46,50,47,41,93,81,69,30.47,30.43,30.38,10,10,10,16,11,22,0.00,4,,17
2011-12-13,60,52,44,47,44,36,100,85,47,30.43,30.39,30.34,10,6,1,13,8,,0.00,4,,6
2011-12-14,59,49,39,43,36,27,89,64,32,30.41,30.38,30.35,10,10,8,12,5,,0.00,1,,13
2011-12-15,66,54,43,58,52,43,100,86,68,30.33,30.24,30.14,10,8,4,12,3,,0.00,0,,204
2011-12-16,66,60,54,57,54,48,90,81,70,30.18,30.14,30.10,10,10,10,10,8,,0.00,2,,232
2011-12-17,51,44,37,45,40,32,87,77,56,30.22,30.15,30.10,10,10,10,15,11,21,0.00,6,,10
2011-12-18,48,41,30,35,30,25,83,65,39,30.40,30.29,30.21,10,10,9,16,8,20,0.00,0,,348
2011-12-19,55,42,30,51,38,28,100,74,40,30.42,30.33,30.25,10,10,8,10,4,,0.00,0,,219
2011-12-20,66,60,54,56,53,49,93,81,63,30.27,30.22,30.18,10,10,10,9,6,,0.00,1,,231
2011-12-21,69,63,57,61,59,55,96,88,73,30.19,30.13,30.07,10,9,5,14,7,22,0.03,6,Rain,205
2011-12-22,70,64,59,64,62,58,97,90,78,30.18,30.10,30.04,10,9,4,15,9,24,0.01,5,Rain,214
2011-12-23,66,60,51,64,56,46,94,82,66,30.21,30.09,29.97,10,9,7,21,12,25,0.00,5,,263
2011-12-24,55,50,44,45,39,34,86,68,47,30.44,30.37,30.22,10,10,10,13,8,,0.00,0,,15
2011-12-25,61,52,43,51,45,40,89,77,58,30.40,30.29,30.15,10,10,10,16,6,23,0.00,3,Rain,308
2011-12-26,55,47,39,46,34,29,83,60,38,30.35,30.28,30.14,10,10,10,18,11,28,0.00,0,,358
2011-12-27,66,54,43,63,54,36,96,83,66,30.25,29.85,29.65,10,6,1,25,13,36,0.79,6,Rain,187
2011-12-28,54,50,45,40,34,30,74,58,40,30.07,29.91,29.70,10,10,10,23,17,29,0.00,0,,283
2011-12-29,55,44,32,46,35,25,96,68,30,30.16,30.10,30.05,10,10,10,10,5,,0.00,0,,246
2011-12-30,60,53,46,54,46,39,93,75,60,30.18,30.11,30.05,10,10,10,14,7,,0.00,0,,233
2011-12-31,66,56,46,55,49,42,90,76,50,30.16,30.04,29.96,10,10,10,13,7,20,0.00,2,Rain,251